TimeEST,TemperatureF,Dew PointF,Humidity,Sea Level PressureIn,VisibilityMPH,Wind Direction,Wind SpeedMPH,Gust SpeedMPH,PrecipitationIn,Events,Conditions,WindDirDegrees,DateUTC
12:53 AM,53.1,33.1,47,30.14,10.0,North,5.8,-,N/A,,Clear,10,2012-11-23 05:53:00
1:53 AM,52.0,34.0,50,30.14,10.0,NNE,4.6,-,N/A,,Clear,20,2012-11-23 06:53:00
2:53 AM,51.1,37.0,59,30.13,10.0,North,5.8,-,N/A,,Clear,360,2012-11-23 07:53:00
3:53 AM,51.1,39.0,63,30.12,10.0,North,5.8,-,N/A,,Clear,10,2012-11-23 08:53:00
4:53 AM,51.1,39.0,63,30.13,10.0,North,8.1,-,N/A,,Clear,360,2012-11-23 09:53:00
5:53 AM,51.1,39.0,63,30.14,10.0,North,6.9,-,N/A,,Clear,10,2012-11-23 10:53:00
6:53 AM,51.1,39.0,63,30.15,10.0,NNE,6.9,-,N/A,,Clear,20,2012-11-23 11:53:00
7:53 AM,54.0,39.0,57,30.17,10.0,North,6.9,-,N/A,,Clear,10,2012-11-23 12:53:00
8:53 AM,60.1,41.0,49,30.19,10.0,NNE,8.1,-,N/A,,Clear,20,2012-11-23 13:53:00
9:53 AM,66.0,45.0,47,30.19,10.0,North,10.4,-,N/A,,Clear,10,2012-11-23 14:53:00
10:53 AM,69.1,48.0,47,30.19,10.0,North,9.2,-,N/A,,Clear,360,2012-11-23 15:53:00
11:53 AM,73.0,48.9,42,30.16,10.0,NNW,8.1,-,N/A,,Clear,340,2012-11-23 16:53:00
12:53 PM,73.9,46.9,38,30.13,10.0,NNW,8.1,-,N/A,,Clear,340,2012-11-23 17:53:00
1:53 PM,75.0,45.0,34,30.10,10.0,North,8.1,-,N/A,,Clear,10,2012-11-23 18:53:00
2:53 PM,75.0,42.1,31,30.09,10.0,North,8.1,-,N/A,,Clear,360,2012-11-23 19:53:00
3:53 PM,73.9,33.1,22,30.08,10.0,NNE,5.8,-,N/A,,Clear,20,2012-11-23 20:53:00
4:53 PM,72.0,26.1,18,30.10,10.0,North,4.6,-,N/A,,Clear,10,2012-11-23 21:53:00
5:53 PM,66.9,30.0,25,30.10,10.0,North,4.6,-,N/A,,Clear,360,2012-11-23 22:53:00
6:53 PM,64.0,33.1,31,30.11,10.0,North,4.6,-,N/A,,Clear,350,2012-11-23 23:53:00
7:53 PM,61.0,36.0,39,30.13,10.0,North,4.6,-,N/A,,Clear,350,2012-11-24 00:53:00
8:53 PM,59.0,42.1,53,30.14,10.0,NW,4.6,-,N/A,,Clear,320,2012-11-24 01:53:00
9:53 PM,57.9,45.0,62,30.14,10.0,Calm,Calm,-,N/A,,Clear,0,2012-11-24 02:53:00
10:53 PM,55.0,46.0,72,30.13,10.0,Calm,Calm,-,N/A,,Clear,0,2012-11-24 03:53:00
11:53 PM,54.0,46.0,75,30.12,10.0,Calm,Calm,-,N/A,,Clear,0,2012-11-24 04:53:00